This is the latest recevied weather packets stored in our database for station/object W2EH. If no packets are shown the sender has not sent any weather packets the latest 10 day(s).
| Time | Temp. | Humidity | Pressure | Rain* | Wind** | Luminosity | Snow |
|---|---|---|---|---|---|---|---|
| 1777684292 | 11.67° C | 96% | 1014.9 hPa | 0 mm | - | 1 W/m² | - |
| 1777683990 | 11.67° C | 96% | 1014.7 hPa | 0 mm | - | 1 W/m² | - |
| 1777683686 | 11.67° C | 96% | 1014.9 hPa | 0 mm | - | 1 W/m² | - |
| 1777683384 | 11.67° C | 96% | 1014.9 hPa | 0 mm | - | 1 W/m² | - |
| 1777683081 | 11.67° C | 96% | 1014.7 hPa | 0 mm | - | 2 W/m² | - |
| 1777682777 | 11.67° C | 96% | 1014.6 hPa | 0 mm | - | 3 W/m² | - |
| 1777682474 | 11.67° C | 96% | 1014.6 hPa | 0 mm | - | 5 W/m² | - |
| 1777682172 | 11.67° C | 96% | 1014.4 hPa | 0 mm | - | 6 W/m² | - |
| 1777681869 | 11.67° C | 96% | 1014.2 hPa | 0 mm | - | 8 W/m² | - |
| 1777681564 | 11.67° C | 96% | 1014.3 hPa | 0 mm | - | 11 W/m² | - |
| 1777681262 | 12.22° C | 97% | 1014.2 hPa | 0 mm | - | 16 W/m² | - |
| 1777680960 | 12.22° C | 97% | 1014.1 hPa | 0 mm | - | 24 W/m² | - |
| 1777680657 | 12.22° C | 97% | 1014 hPa | 0 mm | - | 41 W/m² | - |
| 1777680355 | 12.22° C | 97% | 1014 hPa | 0 mm | - | 52 W/m² | - |
| 1777680052 | 12.22° C | 97% | 1013.9 hPa | 0 mm | - | 39 W/m² | - |
| 1777679747 | 11.67° C | 97% | 1014.3 hPa | 0 mm | - | 39 W/m² | - |
| 1777679444 | 11.67° C | 97% | 1014.4 hPa | 0 mm | - | 27 W/m² | - |
| 1777679139 | 11.67° C | 97% | 1014.1 hPa | 0 mm | - | 25 W/m² | - |
| 1777678838 | 11.67° C | 97% | 1014 hPa | 0 mm | - | 16 W/m² | - |
| 1777678535 | 11.67° C | 97% | 1013.8 hPa | 0 mm | - | 24 W/m² | - |
| 1777678232 | 11.67° C | 97% | 1014.1 hPa | 0 mm | - | 27 W/m² | - |
| 1777677928 | 11.67° C | 97% | 1014 hPa | 0 mm | - | 29 W/m² | - |
| 1777677626 | 11.67° C | 97% | 1013.9 hPa | 0 mm | - | 37 W/m² | - |
| 1777677324 | 11.67° C | 97% | 1014 hPa | 0.51 mm | - | 43 W/m² | - |
| 1777677022 | 11.67° C | 97% | 1013.6 hPa | 0.51 mm | - | 60 W/m² | - |
* Rain latest hour (hover to see other rain measurements)
** Current wind speed in m/s (hover to see current wind gust speed)